Content
SEND FEEDBACK

Daily
Averages
Monthly
Summary
Philippines

TANQUE, PHILIPPINES


Home > Asia > Philippines
Elevation: 43 feet     Latitude: 14 34N     Longitude: 120 58E

WEATHER
 
SELECT A DAY
Number of Records: 170,281;   Date Range: 7/1/96 - 4/15/14
 
SHARE

PRINT THIS DATA

[ ← Previous Day ]
WEATHER ALMANAC - DECEMBER 25, 2013
[ Next Day → ]
[ °C ]   °F
Weather ElementAverageHighLow
Temperature83.9 °F91.4 °F (1:00 pm)77 °F (6:00 am)
Dewpoint75.7 °F78 °F (8:00 pm)71.6 °F (3:00 pm)
Humidity76.2 %100 % (6:00 am)48 % (2:00 pm)
Barometer29.85 in29.90 in (8:00 am)29.77 in (3:00 pm)
Wind Speed4.6 mph9.2 mph (11:00 am)
Weather ElementAverage
Visibility6.1 mi
Wind DirectionESE (122.6 °)

Weather ElementTotal
Precipitation---
Cooling Degree Days19.2 (Base 65)
Growing Degree Days34.2 (Base 50)
Averaged from 31 records on December 25, 2013
WEATHER CONDITIONS BREAKOUT
WIND DIRECTION BREAKOUT
WEATHER BY HOUR - DECEMBER 25, 2013
[ °C ]   °F
Local TimeTemperatureDewpointHumidityBarometerVisibilityWind DirectionWind SpeedGust SpeedPrecipitationEventsConditions
1:00 AM80.6 °F77.0 °F89 %29.86 in6.2 miEast (100°)3.5 mphScattered Clouds
2:00 AM79.0 °F77.0 °F91 %29.85 in6.0 miENE (60°)4.5 mphHaze
2:00 AM78.8 °F77.0 °F94 %29.83 in6.2 miENE (60°)3.5 mphPartly Cloudy
3:00 AM78.8 °F77.0 °F94 %29.83 in6.2 miCalmPartly Cloudy
4:00 AM78.8 °F77.0 °F94 %29.83 in6.2 miCalmPartly Cloudy
5:00 AM78.0 °F76.0 °F92 %29.85 in6.0 miEast (80°)4.5 mphHaze
5:00 AM78.8 °F75.2 °F89 %29.83 in6.2 miEast (80°)3.5 mphPartly Cloudy
6:00 AM77.0 °F77.0 °F100 %29.86 in6.2 miVariable2.3 mphPartly Cloudy
7:00 AM77.0 °F77.0 °F100 %29.86 in6.2 miSW (220°)1.2 mphPartly Cloudy
8:00 AM81.0 °F77.0 °F83 %29.90 in6.0 miNW (320°)2.2 mphHaze
8:00 AM80.6 °F77.0 °F89 %29.89 in6.2 miNW (320°)2.3 mphPartly Cloudy
9:00 AM84.2 °F77.0 °F79 %29.89 in6.2 miWSW (250°)3.5 mphPartly Cloudy
10:00 AM87.8 °F75.2 °F66 %29.89 in6.2 miSE (130°)6.9 mphPartly Cloudy
11:00 AM87.0 °F73.0 °F55 %29.90 in6.0 miESE (110°)8.9 mphPartly Cloudy
11:00 AM87.8 °F73.4 °F62 %29.89 in6.2 miESE (110°)9.2 mphPartly Cloudy
12:00 PM87.8 °F73.4 °F62 %29.86 in6.2 miEast (100°)9.2 mphPartly Cloudy
1:00 PM91.4 °F73.4 °F55 %29.83 in6.2 miSE (130°)8.1 mphPartly Cloudy
2:00 PM91.0 °F74.0 °F48 %29.80 in6.0 miESE (120°)4.5 mphScattered Clouds
2:00 PM91.4 °F73.4 °F55 %29.80 in6.2 miESE (120°)5.8 mphPartly Cloudy
3:00 PM89.6 °F71.6 °F55 %29.77 in6.2 miEast (100°)8.1 mphPartly Cloudy
4:00 PM89.6 °F73.4 °F59 %29.77 in6.2 miESE (110°)5.8 mphPartly Cloudy
5:00 PM87.0 °F74.0 °F56 %29.81 in6.0 miSE (130°)4.5 mphScattered Clouds
5:00 PM87.8 °F75.2 °F66 %29.80 in6.2 miSE (130°)4.6 mphPartly Cloudy
6:00 PM86.0 °F75.2 °F70 %29.83 in6.2 miSE (130°)4.6 mphPartly Cloudy
7:00 PM86.0 °F77.0 °F74 %29.83 in6.2 miESE (110°)5.8 mphPartly Cloudy
8:00 PM84.0 °F78.0 °F76 %29.87 in6.0 miESE (110°)4.5 mphHaze
8:00 PM84.2 °F77.0 °F79 %29.86 in6.2 miESE (110°)5.8 mphPartly Cloudy
9:00 PM82.4 °F77.0 °F84 %29.89 in6.2 miSE (140°)5.8 mphPartly Cloudy
10:00 PM82.4 °F77.0 °F84 %29.89 in6.2 miSSE (160°)3.5 mphPartly Cloudy
11:00 PM82.0 °F76.0 °F79 %29.87 in6.0 miSE (130°)2.2 mphHaze
11:00 PM82.4 °F77.0 °F84 %29.86 in6.2 miSE (130°)3.5 mphPartly Cloudy
Hourly data recorded from RPLL, located 5.75 miles away from Tanque, Philippines







STORIES FROM OUR PARTNERS